Miscellaneous Local Product
Issued by NWS Hastings, NE

Home | Current Version | Previous Version | Text Only | Print | Product List | Glossary On
Versions: 1 2 3 4 5 6 7 8 9 10 11 12 13 14 15 16 17 18 19 20 21 22 23 24 25 26 27 28 29 30 31 32 33 34 35 36 37 38 39 40 41 42 43 44 45 46 47 48 49 50
000
AXUS43 KGID 231702
MISGRI

GID CWA HOURLY WEATHER ROUNDUP
NATIONAL WEATHER SERVICE HASTINGS NE
1200 PM CDT THU OCT 23 2014

NOTE: "FAIR" INDICATES FEW OR NO CLOUDS BELOW 12,000 FEET WITH NO
SIGNIFICANT WEATHER AND/OR OBSTRUCTIONS TO VISIBILITY.

...SOUTH CENTRAL NEBRASKA...

CITY           SKY/WX    TMP DP  RH WIND       PRES   REMARKS
GRAND ISLAND   CLOUDY    53  51  93 S6        30.11F
HASTINGS       FOG       54  52  93 S5        30.11S VSB 1/4
KEARNEY        CLOUDY    54  52  94 S5        30.12S VSB 1/4
ORD            SUNNY     59  54  83 S7        30.08S
YORK           SUNNY     61  55  82 S5        30.10F
AURORA         MOSUNNY   57  57 100 SW5       30.10S
LEXINGTON      MOSUNNY   57  57  98 CALM      30.11S
HOLDREGE       FOG       55  54  97 CALM      30.11S VSB 3/4
HEBRON         PTSUNNY   61  59  93 CALM      30.10S

...NEBRASKA PANHANDLE...

CITY           SKY/WX    TMP DP  RH WIND       PRES   REMARKS
CHADRON        CLOUDY    61  36  39 SW10      30.01F
ALLIANCE       CLOUDY    63  32  31 W17       30.06F
SCOTTSBLUFF    CLOUDY    56  39  53 CALM      30.08F
SIDNEY         MOSUNNY   69  37  30 W7        30.12S

...WESTERN AND NORTH CENTRAL NEBRASKA...

CITY           SKY/WX    TMP DP  RH WIND       PRES   REMARKS
VALENTINE      SUNNY     63  36  36 SW15      30.02F
AINSWORTH      SUNNY     65  37  36 SW10      30.03F
ONEILL         SUNNY     66  51  57 SW16      30.04F
BROKEN BOW     PTSUNNY   58  55  90 VRB7      30.09S
IMPERIAL       SUNNY     69  46  43 S13       30.11F
NORTH PLATTE   SUNNY     60  45  57 CALM      30.10F
MCCOOK         MOSUNNY   59  50  72 CALM      30.13S

...EASTERN NEBRASKA...

CITY           SKY/WX    TMP DP  RH WIND       PRES   REMARKS
NORFOLK        SUNNY     65  51  60 S8        30.06F
SO SIOUX CITY  SUNNY     63  53  70 CALM      30.06F
TEKAMAH        MOSUNNY   60  55  83 SE3       30.07F
COLUMBUS       SUNNY     61  52  72 SW6       30.10F
ALBION         SUNNY     63  51  65 SW8       30.08S
OMAHA EPPLEY   MOSUNNY   62  56  80 N6        30.08S
OFFUTT AFB     SUNNY     65  62  91 VRB2      30.07S
MILLARD        MOSUNNY   61  56  83 CALM      30.07F
LINCOLN        CLOUDY    57  55  93 W7        30.10S FOG
NEBRASKA CITY  MOSUNNY   65  59  80 W6        30.08S
BEATRICE       MOSUNNY   62  59  91 CALM      30.09F
FALLS CITY     MOSUNNY   68  61  78 W10       30.08S

...NORTHERN KANSAS...

CITY           SKY/WX    TMP DP  RH WIND       PRES   REMARKS
GOODLAND       SUNNY     69  46  43 S10       30.15S
HILL CITY      CLOUDY    58  57  97 SW6       30.13S FOG
NORTON         CLOUDY    55  54  94 SW6       30.12S FOG
PHILLIPSBURG   FOG       55  55 100 CALM      30.13R VSB 0
SMITH CENTER   FOG       54  54 100 CALM      30.12S VSB 1/4
BELOIT         CLOUDY    59  59 100 SW5       30.10S VSB 1
HAYS           PTSUNNY   63  55  77 S6        30.12F
RUSSELL        MOSUNNY   68  59  73 S6        30.10S
CONCORDIA      MOSUNNY   68  59  73 VRB5      30.09F
SALINA         SUNNY     70  60  70 SW6       30.10F
TOPEKA         CLOUDY    67  62  84 SW10      30.10R



USA.gov is the U.S. government's official web portal to all federal, state and local government web resources and services.